Regional Weather Roundup
Issued by NWS

Home | Current Version | Previous Version | Text Only | Print | Product List | Glossary Off
Versions: 1 2 3 4 5 6 7 8 9 10 11 12 13 14 15 16 17 18 19 20 21 22 23 24 25 26 27 28 29 30 31 32 33 34 35 36 37 38 39 40 41 42 43 44 45 46 47 48 49 50

000
ASUS45 KBOU 020507
RWRCO

WEATHER ROUNDUP FOR COLORADO
NATIONAL WEATHER SERVICE DENVER/BOULDER CO
1100 PM MDT TUE SEP 01 2015

NOTE: "FAIR" INDICATES FEW OR NO CLOUDS BELOW 12000 FEET WITH NO
SIGNIFICANT WEATHER AND/OR OBSTRUCTIONS TO VISIBILITY.

COZ001>005-013-030-031-020600-
...NORTHWEST COLORADO...

CITY           SKY/WX    TMP DP  RH WIND       PRES   REMARKS
CRAIG          CLOUDY    59  44  57 VRB5      30.22S
HAYDEN         NOT AVBL
MEEKER         PTCLDY    56  47  71 NE3       30.23S
MOUNT WERNER   NOT AVBL
STEAMBOAT SPGS CLOUDY    57  45  62 NE10      30.28R
WALDEN         MOCLDY    50  37  62 CALM      30.34S
$$

COZ006>008-011-020600-
...WEST CENTRAL VALLEYS...

CITY           SKY/WX    TMP DP  RH WIND       PRES   REMARKS
GRAND JUNCTION PTCLDY    67  51  56 E6        30.13R
MONTROSE       MOCLDY    67  50  54 E8        30.24S
EAGLE          CLOUDY    57  52  82 E6        30.32F
RIFLE          MOCLDY    59  53  80 E5        30.22F
DELTA          RAIN      74  48  40 NE8       30.19R
NUCLA          PTCLDY    66  45  45 E7        30.25R
$$

COZ017>023-064>068-020600-
...SOUTHWEST COLORADO...

CITY           SKY/WX    TMP DP  RH WIND       PRES   REMARKS
DURANGO        MOCLDY    64  47  53 NW6       30.25S
CORTEZ         CLEAR     62  47  57 E6        30.20R
PAGOSA SPRINGS MOCLDY    61  41  48 CALM      30.34R
TELLURIDE      PTCLDY    54  48  81 SE3       30.46S
WOLF CREEK PAS PTCLDY    46  37  71 SW17      30.65S
$$

COZ009-010-012-014-032>034-037-058>063-020600-
...CENTRAL COLORADO...

CITY           SKY/WX    TMP DP  RH WIND       PRES   REMARKS
ASPEN          LGT RAIN  55  48  77 S10       30.41R
BUENA VISTA    LGT RAIN  56  48  75 NW8       30.38R
COPPER MTN     RAIN      46  37  71 W30G39    30.62S
BERTHOUD PASS  FAIR      41  30  65 W8G20     30.66S
COTTONWOOD PAS NOT AVBL
GUNNISON       CLOUDY    57  48  72 NE7       30.40F
KREMMLING      RAIN      55  46  71 W21G29    30.37R
LEADVILLE      CLOUDY    46  46 100 E3        30.50R
MONARCH PASS   CLOUDY    45  37  76 SW12      30.73S
SALIDA         CLOUDY    63  49  59 W12G23    30.41S
SUNLIGHT       MOCLDY    48  41  76 CALM      30.56R
WILKERSON PASS CLOUDY    48  36  61 W5        30.60F
$$

COZ069>075-020600-
...SAN LUIS VALLEY/SANGRE DE CRISTO MOUNTAINS...

CITY           SKY/WX    TMP DP  RH WIND       PRES   REMARKS
ALAMOSA        PTCLDY    57  47  69 NW7       30.32F
LA VETA PASS   MOCLDY    52  41  66 MISG      30.49F
SAGUACHE       MOCLDY    57  46  67 NW10      30.36R
$$

COZ035-036-038>040-020600-
...NORTHERN COLORADO FRONT RANGE...

CITY           SKY/WX    TMP DP  RH WIND       PRES   REMARKS
DENVER INTL AP PTCLDY    70  46  42 SW16      30.10F
DMNS CITY PARK   N/A     74  42  32 SW12      30.10F
AURORA         PTCLDY    70  46  41 SW15      30.13S
FRONT RANGE AP NOT AVBL
ERIE MUNI ARPT MOCLDY    64  49  59 CALM      30.07F
BOULDER MUN AP MOCLDY    70  41  35 SW5       30.08F
CENTENNIAL     MOCLDY    69  45  41 W17G31    30.14F
BROOMFIELD     NOT AVBL
FORT COLLINS   CLEAR     66  45  45 NW5       30.08S
LONGMONT       CLEAR     65  46  50 SW5       30.08F
$$

COZ041-046-047-076>085-087-088-020600-
...PIKES PEAK/PALMER DIVIDE AND SOUTHERN FOOTHILLS...

CITY           SKY/WX    TMP DP  RH WIND       PRES   REMARKS
COLO. SPRINGS  MOCLDY    66  49  54 NW5       30.22R
A. F. ACADEMY  CLOUDY    62  51  65 N3        30.23R
ELLICOTT       MOCLDY   N/A N/A N/A SE7       30.19S
FALCON         MOCLDY    63  46  55 MISG      30.26S
FORT CARSON    CLOUDY    63  51  63 N6        30.18R
LIMON          MOCLDY    58  51  78 NW3       30.12R
MONUMENT HILL  MOCLDY    61  45  55 SW8       30.25F
TRINIDAD       PTCLDY    70  47  43 NW18      30.16S
$$

COZ042>045-048>051-090-091-020600-
...NORTHEAST COLORADO...

CITY           SKY/WX    TMP DP  RH WIND       PRES   REMARKS
GREELEY ARPT   PTCLDY    64  48  55 NW3       30.06S
AKRON          CLEAR     68  51  54 S9        30.05S
BURLINGTON     PTCLDY    70  57  63 S12       30.03F
WRAY           CLOUDY    74  56  53 S7        29.98S
STERLING       NOT AVBL
HOLYOKE        CLEAR     70  57  64 SW7       29.97F
FORT MORGAN    CLEAR     64  44  47 W7        30.04R
$$

COZ086-089-092>099-020600-
...SOUTHEAST COLORADO...

CITY           SKY/WX    TMP DP  RH WIND       PRES   REMARKS
PUEBLO         CLOUDY    71  54  54 W9        30.10R
LA JUNTA       CLOUDY    77  53  43 N7        30.05R
LAMAR          PTCLDY    65  56  72 SW3       30.00R
SPRINGFIELD      N/A     71  56  58 SW15      30.07R
$$



USA.gov is the U.S. government's official web portal to all federal, state and local government web resources and services.